Location: Taipo
(41.0000°S, 175.9500°E)
Time: 11:40:06
(UTC+00:00)

CENTAUR R/B - Pass Details

Date: 18 April 2024
Orbit: 669 x 1515 km, 63.4° (Epoch: 24 May)

Event Time Altitude Azimuth Distance (km) Brightness Sun altitude
Exits shadow 16:59:24 18° 221° (SW) 2,489 4.3 -21.6°
Maximum altitude 17:00:15 18° 212° (SSW) 2,434 4.3 -21.4°
Drops below altitude 10° 17:04:37 10° 171° (S) 2,779 5.0 -20.6°
Sets 17:07:58 0° 151° (SSE) 3,571 5.9 -20.0°
